This demonstration page uses our WeatherBlox Daily Observations layout. Learn more.

36.17497, -115.13722

Hourly Observations for August 19, 2018

Temp ( °F °C ) Dew Point ( °F °C ) Humidity (%) Winds ( mph kmh ) Pressure ( in mb ) Visibility ( mi km ) Precip ( " mm )
12:53 am 00:53 Clear 93 33.9 48 8.9 21 21 Calm 29.83 1010 10 16.0934 0 0
1:53 am 01:53 Clear 91 32.8 49 9.4 24 24 ESE 6 9 29.83 1010 10 16.0934 0 0
2:53 am 02:53 Clear 89 31.7 51 10.6 27 27 NW 3 6 29.82 1010 10 16.0934 0 0
3:53 am 03:53 Clear 88 31.1 51 10.6 28 28 Calm 29.83 1010 10 16.0934 0 0
4:53 am 04:53 Clear 87 30.6 48 8.9 26 26 Calm 29.84 1011 10 16.0934 0 0
5:53 am 05:53 Clear 88 31.1 48 8.9 25 25 W 3 6 29.86 1011 10 16.0934 0 0
6:53 am 06:53 Sunny 88 31.1 48 8.9 25 25 NW 3 6 29.87 1012 10 16.0934 0 0
7:53 am 07:53 Sunny 91 32.8 48 8.9 23 23 ESE 5 7 29.89 1012 10 16.0934 0 0
8:53 am 08:53 Sunny 94 34.4 45 7.2 18 18 SSE 6 9 29.9 1012 10 16.0934 0 0
9:53 am 09:53 Sunny 98 36.7 46 7.8 17 17 E 10 17 29.9 1012 10 16.0934 0 0
10:53 am 10:53 Sunny 100 37.8 45 7.2 15 15 E 8 13 29.89 1012 10 16.0934 0 0
11:53 am 11:53 Sunny 100 37.8 47 8.3 16 16 Calm 29.88 1012 10 16.0934 0 0
12:53 pm 12:53 Sunny 102 38.9 48 8.9 16 16 VRB 6 9 29.85 1011 10 16.0934 0 0
1:53 pm 13:53 Sunny 105 40.6 49 9.4 15 15 S 8 13 29.82 1010 10 16.0934 0 0
2:53 pm 14:53 Sunny 107 41.7 46 7.8 13 13 S 8 13 29.79 1009 10 16.0934 0 0
3:53 pm 15:53 Sunny 107 41.7 42 5.6 11 11 SE 9 15 29.75 1008 10 16.0934 0 0
4:53 pm 16:53 Sunny 107 41.7 44 6.7 12 12 ESE 10 17 29.73 1007 10 16.0934 0 0
5:53 pm 17:53 Sunny 108 42.2 40 4.4 10 10 SW 8 13 29.72 1006 10 16.0934 0 0
6:53 pm 18:53 Sunny 106 41.1 43 6.1 12 12 S 7 11 29.72 1006 10 16.0934 0 0
7:53 pm 19:53 Clear 105 40.6 44 6.7 13 13 SSE 7 11 29.72 1007 10 16.0934 0 0
8:53 pm 20:53 Clear 103 39.4 43 6.1 13 13 W 6 9 29.74 1007 10 16.0934 0 0
9:53 pm 21:53 Clear 101 38.3 42 5.6 13 13 WSW 7 11 29.74 1007 10 16.0934 0 0
10:53 pm 22:53 Clear 100 37.8 42 5.6 14 14 SSW 6 9 29.74 1007 10 16.0934 0 0
11:53 pm 23:53 Clear 98 36.7 42 5.6 15 15 SW 7 11 29.75 1007 10 16.0934 0 0

Powered by AerisWeather